Temp
84 84 85 85 85 86 85 85 86 86 85 86 86 86 86 86 87 87 87 87 87 87 86 86 86 86 88 87 86 86 86 86 87 87 86 87 87 88 88 87 87 88
84 84 84 85 84 84 85 86 85 85 85 85 86 87 86 87 87 87 87 87 87 87 87 87 87 87 87 87 86 86 85 85 86 89 86 86 86 87 88 88 88 88
84 84 85 85 86 86 88 87 86 86 87 87 87 86 88 88 87 86 87 87 87 89 87 87 87 86 87 86 85 86 87 85 86 89 86 86 87 87 87 89 90 89
83 84 86 88 88 87 87 86 85 85 87 86 87 88 88 90 88 87 86 86 87 87 88 88 87 88 87 87 85 86 86 85 87 86 86 86 86 88 88 88 88 89
84 84 86 87 88 87 87 86 87 87 87 87 89 87 86 86 86 88 87 87 86 87 87 86 87 87 86 86 86 86 86 87 86 85 85 85 86 86 88 87 86 87
84 83 84 86 86 86 87 87 87 88 88 89 88 89 88 87 87 88 88 88 89 89 89 89 88 88 88 87 86 86 87 88 88 85 85 85 87 88 89 87 86 86
85 84 84 86 87 87 87 87 87 87 89 90 89 88 88 88 87 87 87 88 89 88 89 88 86 87 87 87 85 85 86 86 86 85 84 86 85 86 88 87 85 85
86 86 86 85 87 88 87 88 88 87 88 88 88 88 88 89 88 89 88 88 89 88 87 88 87 86 88 88 86 85 86 89 87 85 84 84 85 84 85 87 86 85
87 87 86 86 87 88 89 90 89 89 88 88 89 90 89 89 89 90 87 87 88 87 86 87 86 87 88 87 86 86 86 88 89 87 85 85 85 85 86 86 86 85
85 86 87 88 88 88 89 90 91 90 89 89 90 91 90 88 89 89 88 86 87 86 86 86 86 87 88 88 86 86 86 85 86 86 87 87 86 87 87 86 86 85
86 87 86 87 88 89 89 90 90 91 90 89 90 90 91 90 88 88 86 86 88 87 87 86 87 87 87 88 88 88 87 88 87 86 87 86 87 86 86 86 86 86
83 84 84 86 88 89 89 90 90 90 90 90 90 89 89 90 89 89 88 86 87 87 88 87 87 87 87 87 89 89 88 88 88 87 87 87 87 88 87 87 87 87
82 81 82 86 86 88 89 88 89 89 90 90 90 89 89 90 91 89 88 88 87 88 88 87 87 88 86 86 87 87 87 87 88 88 87 88 88 88 90 89 89 89
81 82 84 84 84 84 85 87 88 88 88 88 88 88 89 90 91 90 90 90 89 89 88 88 87 88 87 86 87 88 88 88 87 87 88 88 89 89 90 90 90 90
75 78 80 81 81 81 82 84 85 86 85 86 86 87 90 90 91 91 90 89 89 88 88 89 90 89 90 88 87 87 87 88 88 88 88 87 88 89 90 89 90 91
73 74 75 77 78 79 80 80 82 83 85 84 85 86 86 86 87 88 89 89 88 88 88 90 89 90 85 78 79 87 88 89 89 87 87 87 86 86 89 90 91 91
73 72 74 74 77 77 76 77 79 80 80 81 82 83 83 82 84 86 87 89 89 89 89 90 91 91 79 71 69 71 83 87 87 86 86 86 87 85 85 88 90 90
73 73 73 74 76 76 74 75 76 77 78 79 80 81 80 83 84 84 85 87 88 88 89 90 91 83 72 69 68 67 72 84 88 88 89 88 87 87 87 88 88 90
75 74 73 73 74 72 70 71 73 75 77 79 79 80 80 79 80 82 83 85 86 85 87 88 90 80 69 67 66 66 65 74 87 88 89 89 88 87 87 86 86 87
74 74 73 72 72 72 70 70 72 74 76 78 79 79 78 78 81 81 82 82 83 84 84 87 88 81 70 66 65 64 64 69 85 87 88 88 87 88 89 88 86 85
70 70 71 72 73 73 72 71 72 74 75 76 76 77 79 78 80 80 81 83 85 85 85 87 90 75 69 66 63 62 63 69 83 85 86 87 87 87 86 87 87 87
71 71 70 70 70 71 71 71 72 73 74 74 74 75 77 78 78 80 81 82 83 85 85 85 88 68 66 64 62 61 63 77 82 82 83 85 86 86 86 86 86 86
68 68 69 70 70 69 68 68 69 70 72 73 73 74 74 76 78 79 79 80 81 82 83 83 87 70 62 61 63 60 69 82 82 83 83 83 85 85 85 86 86 86
68 68 68 68 68 68 69 69 69 69 69 71 72 73 73 75 76 76 77 78 78 81 83 82 85 74 63 61 60 60 71 81 82 82 82 82 83 84 84 84 84 81
69 69 68 69 69 68 68 69 69 70 70 70 71 71 71 74 75 76 76 76 76 77 76 79 82 75 62 59 57 59 69 80 80 81 80 81 83 83 84 84 83 82
69 68 68 69 69 70 69 68 69 70 70 70 70 71 71 71 72 73 75 75 77 77 76 76 75 74 65 55 54 56 60 75 79 80 80 80 81 81 81 83 83 83
MSLP
1020.23 1020.40 1020.64 1020.79 1020.91 1020.91 1021.08 1021.32 1021.28 1021.47 1021.59 1021.52 1021.72 1021.72 1021.79 1021.67 1021.59 1021.72 1021.79 1021.84 1021.99 1022.08 1022.20 1022.28 1022.28 1022.32 1022.23 1022.23 1022.28 1022.43 1022.67 1022.84 1022.79 1022.79 1022.96 1022.99 1023.11 1023.11 1023.20 1023.20 1023.11 1023.08
1020.16 1020.23 1020.35 1020.52 1020.76 1020.84 1020.88 1020.88 1021.03 1021.16 1021.35 1021.35 1021.32 1021.35 1021.40 1021.43 1021.52 1021.55 1021.72 1021.88 1021.91 1021.99 1021.99 1022.08 1022.16 1022.20 1022.23 1022.23 1022.35 1022.52 1022.76 1022.84 1022.96 1022.55 1022.96 1023.08 1023.08 1023.03 1023.11 1023.08 1023.03 1022.88
1020.03 1020.16 1020.28 1020.52 1020.55 1020.72 1020.67 1020.72 1020.79 1020.91 1020.96 1020.96 1020.99 1021.11 1021.20 1021.20 1021.40 1021.43 1021.52 1021.64 1021.79 1021.76 1021.91 1021.91 1021.99 1022.08 1022.16 1022.23 1022.40 1022.55 1022.67 1022.79 1022.88 1022.52 1022.79 1022.99 1022.84 1023.03 1022.96 1022.84 1022.79 1022.88
1019.91 1019.91 1019.96 1020.03 1020.08 1020.35 1020.43 1020.67 1020.79 1020.84 1020.72 1020.96 1020.99 1020.84 1020.91 1020.91 1021.11 1021.32 1021.40 1021.52 1021.67 1021.76 1021.72 1021.76 1021.88 1021.88 1022.03 1022.16 1022.32 1022.47 1022.47 1022.64 1022.47 1022.52 1022.79 1022.76 1022.76 1022.76 1022.84 1022.84 1022.84 1022.84
1019.76 1019.88 1019.76 1019.79 1019.84 1019.99 1020.20 1020.47 1020.59 1020.64 1020.72 1020.64 1020.59 1020.72 1020.91 1021.03 1021.11 1021.16 1021.23 1021.35 1021.43 1021.55 1021.59 1021.79 1021.79 1021.88 1021.99 1022.11 1022.20 1022.43 1022.40 1022.47 1022.40 1022.52 1022.76 1022.88 1022.67 1022.72 1022.64 1022.76 1022.99 1023.08
1019.47 1019.59 1019.64 1019.67 1019.76 1019.96 1020.11 1020.28 1020.32 1020.35 1020.43 1020.52 1020.55 1020.47 1020.59 1020.72 1020.88 1020.91 1021.03 1021.16 1021.11 1021.23 1021.40 1021.47 1021.67 1021.72 1021.79 1021.96 1022.11 1022.20 1022.20 1022.28 1022.23 1022.47 1022.67 1022.79 1022.59 1022.40 1022.43 1022.59 1022.88 1023.08
1019.35 1019.47 1019.59 1019.52 1019.59 1019.64 1019.88 1019.96 1020.03 1020.11 1020.16 1020.11 1020.20 1020.47 1020.43 1020.64 1020.79 1020.84 1020.91 1020.99 1021.03 1021.16 1021.23 1021.47 1021.67 1021.76 1021.67 1021.88 1022.08 1022.23 1022.20 1022.23 1022.23 1022.43 1022.67 1022.59 1022.55 1022.59 1022.40 1022.55 1022.76 1022.91
1018.99 1019.11 1019.23 1019.35 1019.52 1019.52 1019.72 1019.72 1019.84 1019.96 1019.99 1020.08 1020.32 1020.28 1020.32 1020.52 1020.64 1020.59 1020.72 1020.88 1020.99 1021.16 1021.23 1021.28 1021.43 1021.64 1021.59 1021.64 1021.96 1022.11 1022.16 1021.96 1022.16 1022.40 1022.55 1022.64 1022.55 1022.72 1022.55 1022.43 1022.55 1022.84
1018.76 1018.96 1019.08 1019.28 1019.40 1019.40 1019.47 1019.43 1019.55 1019.67 1019.72 1019.99 1020.08 1020.03 1020.11 1020.28 1020.43 1020.47 1020.67 1020.79 1020.96 1021.08 1021.20 1021.28 1021.35 1021.40 1021.35 1021.52 1021.72 1021.91 1022.03 1021.96 1021.84 1022.08 1022.32 1022.43 1022.52 1022.52 1022.43 1022.28 1022.52 1022.64
1018.79 1018.79 1018.91 1019.08 1019.28 1019.20 1019.32 1019.23 1019.20 1019.35 1019.47 1019.72 1019.76 1019.72 1020.03 1020.11 1020.20 1020.35 1020.59 1020.84 1020.99 1021.08 1021.11 1021.16 1021.23 1021.23 1021.28 1021.28 1021.52 1021.64 1021.76 1021.88 1021.84 1021.91 1021.96 1022.03 1022.16 1022.16 1022.11 1022.20 1022.32 1022.47
1018.67 1018.67 1018.88 1018.96 1018.99 1018.91 1019.03 1019.03 1019.08 1019.16 1019.28 1019.47 1019.52 1019.64 1019.67 1019.88 1020.16 1020.23 1020.55 1020.76 1020.88 1020.96 1020.99 1021.08 1021.08 1021.08 1021.23 1021.20 1021.16 1021.16 1021.35 1021.43 1021.55 1021.67 1021.72 1021.79 1021.79 1021.84 1021.84 1021.96 1022.03 1022.16
1018.67 1018.67 1018.79 1018.79 1018.79 1018.76 1018.84 1018.88 1018.91 1019.03 1019.16 1019.23 1019.32 1019.55 1019.59 1019.59 1019.88 1019.99 1020.23 1020.55 1020.59 1020.64 1020.67 1020.76 1020.79 1020.88 1020.99 1021.08 1020.99 1020.99 1021.11 1021.20 1021.23 1021.40 1021.43 1021.52 1021.52 1021.52 1021.52 1021.55 1021.67 1021.76
1018.59 1018.67 1018.67 1018.64 1018.64 1018.64 1018.55 1018.72 1018.84 1018.88 1018.99 1019.16 1019.11 1019.32 1019.52 1019.55 1019.55 1019.79 1019.88 1020.08 1020.28 1020.32 1020.43 1020.52 1020.59 1020.59 1020.76 1020.84 1020.88 1020.91 1021.03 1021.16 1021.16 1021.20 1021.28 1021.28 1021.23 1021.20 1021.11 1021.16 1021.23 1021.32
1018.40 1018.43 1018.47 1018.47 1018.47 1018.55 1018.64 1018.64 1018.67 1018.79 1018.88 1018.91 1018.99 1019.28 1019.35 1019.35 1019.43 1019.55 1019.59 1019.67 1019.84 1019.99 1020.03 1020.11 1020.32 1020.40 1020.47 1020.59 1020.64 1020.72 1020.84 1020.96 1020.99 1021.08 1021.08 1021.08 1021.03 1020.96 1020.88 1020.88 1020.88 1020.91
1018.11 1018.16 1018.32 1018.52 1018.59 1018.67 1018.76 1018.79 1018.76 1018.84 1018.88 1018.91 1019.03 1019.08 1018.99 1018.99 1019.08 1019.20 1019.43 1019.59 1019.59 1019.72 1019.79 1019.79 1019.91 1020.03 1019.99 1020.20 1020.40 1020.55 1020.55 1020.72 1020.76 1020.84 1020.88 1020.96 1020.96 1020.84 1020.72 1020.76 1020.72 1020.59
1018.35 1018.28 1018.35 1018.52 1018.72 1018.79 1018.79 1018.88 1018.91 1018.91 1018.88 1018.99 1019.03 1018.99 1018.99 1019.03 1019.08 1019.16 1019.23 1019.40 1019.59 1019.59 1019.59 1019.59 1019.64 1019.55 1019.64 1019.91 1020.08 1020.20 1020.28 1020.32 1020.40 1020.52 1020.59 1020.67 1020.84 1020.88 1020.72 1020.55 1020.43 1020.35
1018.32 1018.55 1018.59 1018.72 1018.76 1018.91 1018.99 1019.03 1019.08 1019.03 1019.11 1019.11 1019.11 1019.08 1019.16 1019.16 1019.16 1019.20 1019.16 1019.11 1019.20 1019.28 1019.40 1019.32 1019.23 1019.11 1019.43 1019.67 1019.91 1020.11 1020.20 1020.23 1020.35 1020.40 1020.35 1020.47 1020.52 1020.67 1020.76 1020.55 1020.28 1020.11
1018.16 1018.40 1018.64 1018.67 1018.59 1018.79 1018.99 1018.91 1018.91 1019.03 1019.16 1019.16 1019.11 1019.16 1019.20 1019.03 1019.16 1019.16 1019.11 1019.03 1019.03 1019.03 1019.11 1019.03 1018.96 1018.96 1019.32 1019.55 1019.76 1019.96 1020.16 1020.16 1019.99 1019.99 1019.99 1020.08 1020.11 1020.20 1020.20 1020.20 1020.20 1020.08
1018.03 1018.28 1018.47 1018.52 1018.55 1018.72 1018.76 1018.59 1018.55 1018.72 1018.84 1018.91 1019.03 1018.96 1018.99 1019.20 1019.20 1019.16 1019.16 1019.03 1018.99 1019.16 1019.16 1018.91 1018.84 1018.76 1019.16 1019.40 1019.59 1019.79 1019.99 1020.20 1019.91 1019.76 1019.76 1019.76 1019.76 1019.84 1019.88 1019.96 1019.99 1020.03
1017.88 1017.91 1018.16 1018.28 1018.32 1018.52 1018.76 1018.88 1018.96 1018.88 1018.67 1018.59 1018.64 1018.79 1019.03 1019.08 1018.96 1019.03 1019.03 1019.11 1019.08 1019.08 1019.03 1018.79 1018.67 1018.59 1018.88 1019.11 1019.32 1019.55 1019.72 1020.03 1019.79 1019.64 1019.55 1019.47 1019.52 1019.52 1019.47 1019.55 1019.64 1019.79
1018.47 1018.43 1018.23 1018.11 1018.11 1018.35 1018.76 1019.08 1018.96 1018.76 1018.72 1018.64 1018.64 1018.72 1018.84 1018.96 1018.96 1019.03 1018.96 1018.88 1018.76 1018.76 1018.79 1018.76 1018.40 1018.43 1018.72 1018.88 1019.03 1019.32 1019.47 1019.88 1019.55 1019.40 1019.32 1019.28 1019.20 1019.16 1019.20 1019.20 1019.20 1019.23
1018.59 1018.59 1018.55 1018.40 1018.28 1018.40 1018.67 1018.96 1018.99 1018.76 1018.64 1018.47 1018.47 1018.59 1018.55 1018.55 1018.67 1018.67 1018.72 1018.67 1018.52 1018.52 1018.59 1018.67 1018.28 1018.47 1018.72 1018.88 1018.96 1019.11 1019.47 1019.52 1019.32 1019.40 1019.32 1019.16 1019.03 1018.91 1018.88 1018.84 1018.84 1018.96
1018.84 1018.99 1018.88 1018.72 1018.64 1018.72 1018.91 1019.03 1019.16 1019.08 1018.76 1018.35 1018.43 1018.43 1018.55 1018.64 1018.59 1018.55 1018.52 1018.52 1018.47 1018.47 1018.64 1018.67 1018.47 1018.72 1018.88 1018.99 1019.03 1019.16 1019.23 1019.08 1019.08 1019.08 1019.03 1019.03 1018.88 1018.72 1018.72 1018.67 1018.64 1018.67
1019.23 1019.20 1019.20 1019.11 1019.03 1018.96 1018.88 1018.91 1018.91 1018.88 1018.88 1018.64 1018.67 1018.67 1018.67 1018.64 1018.64 1018.72 1018.64 1018.59 1018.59 1018.47 1018.40 1018.64 1018.47 1018.59 1018.96 1019.11 1019.16 1019.16 1019.03 1018.88 1018.84 1018.91 1018.96 1018.88 1018.76 1018.59 1018.52 1018.55 1018.55 1018.67
1019.35 1019.35 1019.32 1019.23 1019.16 1019.08 1018.96 1018.91 1018.91 1018.96 1018.91 1018.79 1018.84 1018.88 1018.91 1018.72 1018.67 1018.76 1018.79 1018.72 1018.59 1018.64 1018.67 1018.76 1018.59 1018.79 1019.20 1019.43 1019.43 1019.32 1019.16 1018.76 1018.76 1018.79 1018.99 1018.88 1018.67 1018.64 1018.40 1018.40 1018.40 1018.35
1019.72 1019.72 1019.55 1019.43 1019.35 1019.16 1019.11 1019.28 1019.20 1019.08 1018.99 1019.03 1019.20 1019.16 1019.11 1019.03 1019.03 1018.99 1018.99 1018.84 1018.59 1018.55 1018.59 1018.59 1018.99 1019.40 1019.79 1019.76 1019.64 1019.59 1019.47 1019.11 1018.79 1018.96 1019.03 1018.91 1018.76 1018.72 1018.79 1018.52 1018.35 1018.32
Wind_Speed
8 7 7 7 6 6 6 7 7 7 7 7 7 6 6 6 6 5 6 5 5 5 5 5 4 4 3 3 2 2 2 2 2 2 3 3 3 3 3 3 3 3
9 9 7 7 6 5 6 7 7 8 7 7 6 6 6 6 6 6 6 6 6 6 5 5 5 4 4 3 3 3 2 3 4 3 3 4 3 3 4 4 3 3
9 9 9 10 9 9 10 8 7 7 7 8 7 6 6 6 6 6 6 6 6 5 5 5 4 4 4 3 3 3 3 3 3 3 3 3 3 3 3 3 3 3
9 10 10 10 9 9 8 7 7 6 6 6 7 7 6 5 6 7 6 6 5 5 4 4 4 4 4 4 4 3 3 3 2 2 2 2 3 3 3 3 3 4
10 9 9 9 8 7 7 8 9 8 8 7 7 6 5 5 6 6 6 5 5 5 4 4 4 4 4 4 4 4 3 4 3 3 3 3 3 3 3 3 4 4
8 8 7 8 7 7 8 8 8 8 8 8 7 6 6 6 6 6 6 6 6 5 5 4 4 4 4 4 4 4 4 4 3 3 4 4 4 3 3 3 4 5
10 9 10 8 9 9 8 8 7 7 7 7 6 6 6 6 6 6 6 6 6 5 5 4 4 4 4 4 4 4 4 4 3 4 4 4 4 4 4 4 4 5
11 10 10 9 10 9 9 8 8 7 7 6 6 6 6 6 7 6 6 6 6 6 5 5 5 5 5 4 5 5 5 4 4 5 5 5 4 5 4 4 4 5
10 10 9 10 11 10 10 10 8 8 6 7 6 5 5 6 6 6 5 6 6 5 5 5 5 5 5 5 5 6 6 6 5 5 5 5 5 5 5 4 4 5
9 8 10 11 11 10 11 10 8 7 7 7 7 6 6 5 5 5 5 5 5 5 5 5 5 5 5 5 6 6 6 6 6 6 5 6 6 6 5 4 5 5
9 9 9 11 11 10 11 10 9 8 7 7 7 7 6 6 5 5 5 5 5 6 5 5 6 5 6 6 6 6 6 6 6 6 6 6 6 6 5 5 5 6
9 8 9 10 11 10 10 9 8 8 8 7 7 7 7 7 6 6 6 6 6 6 6 5 5 5 6 6 7 6 6 6 6 6 6 6 7 7 7 6 6 6
8 8 8 9 9 9 8 8 8 8 8 8 7 7 7 7 7 7 6 6 6 6 6 6 6 6 6 6 6 6 6 6 7 7 7 6 7 8 8 7 7 7
5 6 8 8 7 7 7 7 7 7 7 6 6 7 8 8 7 7 7 7 6 6 6 6 6 6 6 6 6 6 6 7 7 7 8 8 8 8 8 8 8 8
6 5 5 5 5 5 6 6 6 6 5 6 6 7 7 8 8 8 7 7 7 6 6 6 6 6 6 5 6 7 7 7 8 8 8 8 8 9 8 8 8 8
4 3 4 4 5 5 4 4 4 4 5 6 6 6 6 5 5 6 7 7 7 7 7 7 6 6 6 8 7 6 6 6 6 7 8 8 8 8 9 9 9 9
5 4 4 4 4 3 3 3 3 3 3 4 4 4 5 4 6 7 8 7 8 7 8 7 7 6 8 10 11 11 9 8 7 7 7 8 8 8 8 9 9 9
7 6 5 6 6 6 5 4 4 3 4 4 5 5 4 5 6 6 6 6 6 7 7 7 7 4 8 9 10 11 9 8 8 8 7 7 8 8 8 8 8 9
8 8 6 6 7 7 6 7 6 7 7 7 7 6 5 5 5 6 6 6 6 6 6 6 6 5 9 9 10 10 11 9 9 9 9 9 8 8 8 8 7 7
7 9 9 7 7 6 5 6 7 6 6 5 5 6 6 6 7 7 6 5 5 5 5 6 7 5 9 9 10 11 11 9 9 10 10 10 9 9 8 8 8 8
7 5 3 6 8 7 6 5 6 7 7 6 6 7 7 6 5 5 6 7 8 7 7 7 7 6 8 9 9 10 9 8 8 8 8 9 9 9 9 9 9 8
8 8 7 6 5 6 6 4 2 5 7 5 6 6 5 4 4 5 6 6 5 5 6 7 5 6 5 5 6 6 5 5 6 7 8 8 9 9 9 8 8 8
7 6 6 6 5 5 5 4 3 3 3 4 5 5 5 4 3 3 2 4 4 5 6 5 4 4 2 2 1 3 4 4 5 5 6 7 8 8 7 7 7 7
6 5 5 4 4 5 5 5 4 3 4 4 4 4 5 4 4 3 3 1 3 5 4 4 5 5 2 1 0 2 2 3 4 4 5 5 5 5 5 5 5 7
6 6 6 6 7 5 4 4 4 5 4 4 4 4 5 4 4 4 4 4 4 3 3 3 4 3 6 7 5 2 2 3 3 3 4 4 4 3 3 3 3 3
6 6 6 6 6 7 8 7 5 5 5 5 4 3 4 4 3 4 5 5 4 5 4 5 4 5 10 9 6 4 3 2 3 4 6 5 4 3 3 3 2 1
Wind_Direction
185 188 194 196 204 208 204 202 206 206 208 212 214 212 217 215 213 215 219 216 213 219 214 216 214 215 215 206 200 203 206 228 240 202 221 236 251 255 250 237 238 243
187 185 186 195 197 201 206 208 202 206 204 206 214 208 209 211 208 212 215 216 213 218 214 213 212 215 221 224 210 216 208 210 224 201 214 224 247 257 255 250 257 257
191 189 191 196 203 205 212 209 209 209 210 211 208 208 204 204 206 203 208 213 219 223 209 216 213 213 218 216 215 220 220 219 234 218 214 238 255 258 270 267 254 246
195 197 200 203 205 201 204 202 206 209 212 204 210 208 209 201 201 199 199 202 214 218 225 223 227 224 216 212 206 226 224 232 234 232 224 232 241 264 267 264 271 266
199 201 203 204 203 200 200 203 209 204 210 210 209 201 197 198 203 205 199 197 205 214 208 216 219 230 222 220 214 228 218 231 203 207 225 234 234 237 257 265 272 275
197 199 199 200 197 198 205 206 207 207 211 208 208 201 205 200 206 207 203 207 206 214 216 216 217 224 227 223 227 240 246 250 211 207 230 241 252 243 259 263 269 272
199 200 205 204 206 203 208 208 208 210 211 217 201 205 201 201 203 204 203 207 216 213 218 212 219 226 221 222 227 234 237 245 240 220 235 247 241 247 249 251 259 269
203 201 203 204 207 206 210 209 210 207 207 206 211 204 203 206 205 206 203 205 213 213 213 214 214 217 229 227 230 232 239 233 226 219 229 242 250 252 247 249 251 261
203 202 201 207 212 214 214 216 211 210 201 205 213 206 196 210 206 210 199 204 214 212 211 219 215 225 227 229 235 236 242 251 249 235 236 244 244 246 250 249 251 256
203 206 208 210 215 218 218 218 217 209 198 208 208 210 199 198 208 210 204 204 217 215 216 225 222 230 230 227 228 234 237 239 241 242 247 248 250 255 255 247 256 260
215 211 210 212 217 221 222 220 219 217 204 210 208 209 205 197 190 200 204 209 224 224 224 225 231 231 232 238 236 236 235 240 241 239 244 249 252 253 252 251 252 257
215 216 216 218 221 224 223 220 218 220 216 207 212 209 205 209 199 200 202 208 219 228 232 233 234 235 234 242 246 243 239 243 242 241 245 248 251 252 249 246 249 250
207 209 213 223 222 226 226 219 218 220 221 220 208 214 213 217 210 205 199 210 212 222 230 230 232 239 237 239 245 245 243 246 251 248 249 249 252 254 257 254 251 251
223 229 226 220 218 216 220 225 224 221 219 217 210 213 220 224 226 217 212 216 218 221 224 226 228 236 235 237 242 245 245 244 244 249 254 253 256 256 258 260 257 256
189 184 203 216 209 205 211 216 215 211 204 210 213 222 226 227 229 235 236 235 233 230 233 230 236 236 237 233 236 235 240 249 248 247 249 252 253 259 258 255 257 259
205 177 158 176 186 189 178 168 179 194 200 203 206 211 212 214 225 230 237 238 238 231 231 234 233 237 211 213 230 249 249 252 249 248 251 250 251 256 260 259 259 259
193 202 177 179 182 160 120 134 142 164 175 180 190 196 201 192 210 217 222 227 231 235 234 234 238 235 197 206 215 227 244 254 252 250 246 244 246 248 256 263 266 262
199 189 190 197 184 160 136 140 156 172 193 195 198 189 184 204 213 214 215 219 223 230 236 239 243 221 194 210 218 223 225 245 256 258 254 249 248 250 253 259 264 267
201 197 195 192 182 167 179 206 186 185 196 202 204 199 195 205 214 217 218 221 221 220 234 240 247 188 197 210 221 224 223 229 254 258 259 257 254 250 252 252 255 262
210 214 204 186 173 166 180 209 214 224 223 212 201 196 204 216 224 227 225 222 229 233 238 245 247 205 195 205 216 221 222 213 245 253 257 261 259 256 255 252 247 248
64 64 129 182 186 169 173 215 214 211 217 216 212 215 221 223 229 233 234 235 235 237 242 248 248 196 201 210 217 220 221 207 242 245 252 254 253 253 251 252 252 249
54 57 56 56 88 121 132 134 187 215 199 180 179 195 207 212 221 230 233 232 232 239 248 245 254 145 205 220 225 233 204 219 227 231 240 246 248 251 251 250 251 253
40 35 39 56 69 84 91 98 86 67 101 154 142 144 159 169 191 194 198 230 236 243 250 258 259 107 153 219 181 139 175 227 229 234 236 239 245 250 254 255 254 255
35 36 38 24 25 55 81 92 83 75 43 34 80 108 119 124 143 156 153 189 237 247 256 271 268 109 123 277 123 145 250 244 239 239 246 248 251 248 252 255 258 266
37 39 37 41 46 37 28 36 62 65 49 49 53 62 76 76 80 89 84 70 59 14 55 270 265 99 47 34 53 129 252 247 238 254 256 260 261 253 244 251 250 242
42 39 41 45 58 59 46 30 18 44 57 64 48 37 70 75 72 68 77 81 78 71 62 40 353 32 38 35 59 59 343 294 258 257 262 263 268 275 283 280 270 257